Torna al catalogo

COSMOS 1275 DEB

LostPO
NORAD 42121·DEBRIS·🇷🇺 Russia

Lanciato Jun 4, 1981 da Plesetsk Cosmodrome

Loading…

Prossimi Passaggi (prossime 24 ore)

TLE

ObsoletoSource: Space-Track

Epoca: Feb 10, 2024, 18:25 UTC

1 42121U 81053QH  24041.76774431  .00005072  00000-0  30011-2 0  9998
2 42121  82.9208 200.8586 0043568  35.0254 325.3772 14.07045780963525

Traccia COSMOS 1275 DEB in tempo reale con AllMySat

Download on the App Store